User: anonymous   Login
Location: Unspecified
(0.0000°N, 0.0000°E)
Time: 21:48:12
(UTC+00:00)
Language:

ATHENOXAT 1 - Orbit

View from above orbital plane
View from above orbital plane
View from above satellite
View from above satellite

Ground track
Ground track

The orbit data is extracted from the following two-line orbital elements,

1 41168U 15077C   18049.45835451  .00002043  00000-0  75953-4 0  9999
2 41168  14.9847 169.0957 0012017 191.6185 230.1725 15.12458466120379
Epoch (UTC): 18 February 2018 11:00:01
Eccentricity: 0.0012017
inclination: 14.9847°
perigee height: 520 km
apogee height: 537 km
right ascension of ascending node: 169.0957°
argument of perigee: 191.6185°
revolutions per day: 15.12458466
mean anomaly at epoch: 230.1725°
orbit number at epoch: 12037

The dashed part of the orbit path shows where the satellite is in the earth's shadow,  

DLR